TimeEDT,TemperatureF,Dew PointF,Humidity,Sea Level PressureIn,VisibilityMPH,Wind Direction,Wind SpeedMPH,Gust SpeedMPH,PrecipitationIn,Events,Conditions,WindDirDegrees,DateUTC
12:53 AM,55.0,27.0,34,30.08,10.0,Calm,Calm,-,N/A,,Clear,0,2013-05-06 04:53:00
1:53 AM,60.1,26.1,27,30.08,10.0,SSE,8.1,-,N/A,,Clear,160,2013-05-06 05:53:00
2:53 AM,57.9,27.0,31,30.09,10.0,SSE,8.1,-,N/A,,Clear,160,2013-05-06 06:53:00
3:53 AM,55.0,28.9,37,30.09,10.0,Variable,6.9,-,N/A,,Clear,0,2013-05-06 07:53:00
4:53 AM,54.0,32.0,43,30.09,10.0,South,6.9,-,N/A,,Clear,180,2013-05-06 08:53:00
5:53 AM,53.1,32.0,45,30.09,10.0,SSE,13.8,-,N/A,,Clear,150,2013-05-06 09:53:00
6:53 AM,53.1,34.0,48,30.11,10.0,SSE,10.4,-,N/A,,Clear,160,2013-05-06 10:53:00
7:53 AM,55.0,36.0,49,30.12,10.0,NNW,10.4,-,N/A,,Clear,330,2013-05-06 11:53:00
8:53 AM,57.0,36.0,45,30.14,10.0,North,8.1,-,N/A,,Clear,350,2013-05-06 12:53:00
9:53 AM,60.1,37.9,44,30.14,10.0,NNW,9.2,-,N/A,,Clear,340,2013-05-06 13:53:00
10:53 AM,63.0,41.0,45,30.14,10.0,North,9.2,-,N/A,,Clear,360,2013-05-06 14:53:00
11:53 AM,62.1,39.0,43,30.13,10.0,North,10.4,-,N/A,,Clear,350,2013-05-06 15:53:00
12:53 PM,64.9,37.0,36,30.11,10.0,NNE,9.2,-,N/A,,Clear,20,2013-05-06 16:53:00
1:53 PM,68.0,33.1,27,30.09,10.0,NNE,10.4,-,N/A,,Clear,20,2013-05-06 17:53:00
2:53 PM,70.0,28.0,21,30.07,10.0,North,10.4,-,N/A,,Clear,10,2013-05-06 18:53:00
3:53 PM,71.1,30.0,22,30.04,10.0,North,10.4,-,N/A,,Clear,350,2013-05-06 19:53:00
4:53 PM,70.0,28.0,21,30.02,10.0,NNW,5.8,-,N/A,,Clear,330,2013-05-06 20:53:00
5:53 PM,71.1,26.1,19,30.02,10.0,North,4.6,-,N/A,,Clear,360,2013-05-06 21:53:00
6:53 PM,69.1,33.1,26,30.02,10.0,North,3.5,-,N/A,,Clear,10,2013-05-06 22:53:00
7:53 PM,66.0,37.9,36,30.03,10.0,NE,3.5,-,N/A,,Clear,40,2013-05-06 23:53:00
8:53 PM,62.1,37.9,41,30.04,10.0,ESE,3.5,-,N/A,,Clear,120,2013-05-07 00:53:00
9:53 PM,55.0,41.0,59,30.06,10.0,Calm,Calm,-,N/A,,Clear,0,2013-05-07 01:53:00
10:53 PM,53.1,43.0,69,30.07,10.0,Calm,Calm,-,N/A,,Clear,0,2013-05-07 02:53:00
11:53 PM,53.1,44.1,71,30.07,10.0,Calm,Calm,-,N/A,,Clear,0,2013-05-07 03:53:00